Tracking 35274 objects as of 12-Sep-2026
HD Live streaming from Space Station
objects crossing your sky now

MOLNIYA 2-2


MOLNIYA 2-2 is no longer on orbit


NORAD ID: 6031
Int'l Code: 1972-037A
Launch date: May 19, 1972
Source: Commonwealth of Independent States (former USSR) (CIS)
Launch site: PLESETSK MISSILE AND SPACE COMPLEX (PKMTR)
Decay date: 1977-03-22
Your satellite tracking list
Your tracking list is empty




NASA's NSSDC Master Catalog

Two Line Element Set (TLE):
1 06031U 72037  A 77063.69527735  .00432434 +00000-0 +00000-0 0  9996
2 06031 064.8598 166.3470 7430926 239.9480 035.3050 02.16676737035329
Source of the keplerian elements: AFSPC